GFSFLT2_con_sbcape_117.txt.gz
CAPE
1496 1596 1674 1750 1998 2103 2081 2069 2015 1997 2088 2259 2373 2271 2209 2125 2119 2188 2471 2500 2435 2444 2339 2036 1461 1143 1167 1185 1162 1239 916 71
1563 1391 1409 1363 1442 1709 1854 1978 2019 2031 2062 2117 2231 2197 2172 2107 2057 2185 2404 2381 2321 2231 2164 1839 1389 1147 1088 1080 1036 1017 823 647
2156 1627 1441 1323 1174 1259 1461 1740 1841 1966 2010 1985 1800 1947 2050 1986 1897 2018 2275 2187 2162 2087 2056 1706 1273 1124 1053 973 859 800 793 479
2505 1985 1764 1593 1666 1196 1039 1294 1363 1536 1799 1678 1707 1839 1804 2000 1843 1845 2001 1962 1944 2006 1875 1690 1211 920 876 947 725 844 743 448
2759 2511 2222 1968 1851 1184 1155 1081 1047 1262 1619 1650 1837 1957 1824 1640 1653 1563 1434 1588 1503 1528 1409 1187 1041 892 809 732 703 874 614 542
2519 2277 2249 2423 2328 1620 1286 1349 1056 1102 1218 1568 1687 1600 1721 1824 1672 1488 1423 1445 1401 1249 1207 1196 1072 970 861 955 887 838 395 498
2308 2145 2087 2030 2019 2079 2009 1500 1399 1376 1358 1509 1553 1300 1483 1448 1416 1563 1554 1457 1412 1242 1237 1266 1232 1070 1079 1123 1054 911 717 545
0 1505 2091 1859 1409 1661 1588 1665 1905 1748 1739 1765 1859 1639 1339 1453 1449 1453 1599 1528 1483 1330 1240 1268 1340 1132 1226 1259 1017 1009 901 705
0 0 0 0 432 964 1061 881 1545 1769 1486 1864 2163 1964 1586 1350 1467 1305 1567 1755 1471 1483 1133 859 1023 1121 1184 1022 962 909 941 843
0 0 0 0 0 0 422 895 987 1198 1418 1754 1880 2189 1815 1546 1338 1390 1052 1689 1616 1562 1403 1213 1018 1085 1015 919 907 863 871 810
0 0 0 0 0 0 0 0 0 492 1072 1621 1589 1458 1931 1868 1544 1393 1451 1244 1592 1621 1333 1157 920 1015 984 947 883 864 757 745
0 0 0 0 0 0 0 0 0 0 488 786 1333 1470 1359 1857 1724 1649 1257 1337 1421 1474 1543 1096 1055 988 1198 1027 792 655 569 601
0 0 0 0 0 0 0 0 0 0 0 0 4 1148 1318 1370 1488 1381 1324 1406 1354 1124 1005 1365 1079 856 915 532 505 402 485 437
0 0 0 0 0 0 0 0 0 0 0 0 0 0 325 1175 1453 1439 1625 1257 800 1050 1076 816 1049 964 764 435 628 316 447 414
0 0 0 0 0 0 0 0 0 0 0 0 0 0 0 255 1257 1328 1355 1302 879 863 884 1113 1244 854 740 524 237 332 100 171
0 0 0 0 0 0 0 0 0 0 0 0 0 0 0 0 2 813 1285 1157 1006 815 950 1196 1019 1016 637 345 74 41 43 70
0 0 0 0 0 0 0 0 0 0 0 0 0 0 0 0 0 0 767 922 869 813 688 1266 894 853 891 1021 464 141 71 73
0 0 0 0 0 0 0 0 0 0 0 0 0 0 0 0 0 0 0 920 1141 832 748 842 1301 1228 716 580 784 693 449 129
0 0 0 0 0 0 0 2 3 3 3 3 1 0 0 0 0 0 0 217 1048 1190 791 820 1053 1218 821 771 647 625 494 387
0 0 0 0 0 0 0 0 2 3 1 3 5 6 1 0 0 0 0 0 511 932 899 962 1136 1193 960 882 737 577 422 237

GFSFLT2_con_sbcape_123.txt.gz
CAPE
1228 1391 1655 1826 1944 1962 1759 1699 1663 1729 1824 1860 1914 1830 1763 1794 1851 1907 2336 2426 2149 2108 1913 1378 1084 1012 930 875 893 1075 365 145
1160 1202 1407 1499 1574 1716 1760 1682 1612 1629 1728 1786 1738 1689 1671 1618 1621 1760 2134 2236 2113 2039 1937 1546 1094 871 808 789 855 830 415 165
1094 1147 1194 1241 1297 1432 1547 1678 1642 1521 1554 1606 1524 1478 1514 1562 1512 1628 1901 2155 2029 2008 1926 1715 1365 895 729 661 738 449 314 272
1240 1130 1164 1045 1323 1424 1406 1485 1539 1391 1388 1419 1529 1470 1452 1636 1582 1507 1720 1841 1942 1913 1794 1642 1238 611 490 520 404 398 250 301
1809 1265 1046 1066 1240 1062 1124 1354 1297 1436 1676 1641 1583 1385 1490 1538 1465 1335 1371 1440 1547 1534 1399 1219 965 528 356 302 239 285 219 183
856 1555 1281 1002 1044 937 935 1023 959 1108 1281 1403 1363 1255 1233 1401 1449 1267 1147 1326 1519 1415 1370 1321 995 603 366 265 261 252 224 116
1398 1712 1575 1216 1206 994 721 932 968 984 1091 1252 1258 1250 1247 1329 1344 1151 1012 990 1176 1307 1351 1137 1021 758 506 279 277 270 242 132
0 11 733 1522 1285 1181 1006 840 845 691 851 951 1178 1363 1315 1307 1423 1107 1010 831 939 1005 1191 1096 1033 861 684 391 371 377 268 178
0 0 0 0 0 0 0 140 597 631 719 1102 923 1138 1133 1140 1195 1281 1214 1037 878 910 824 880 905 725 678 470 441 392 326 197
0 0 0 0 0 0 0 0 0 0 1 23 170 761 1156 907 814 986 1197 915 913 974 1056 1000 900 722 693 456 475 408 333 243
0 0 0 0 0 0 0 0 0 0 0 0 0 2 22 37 26 539 450 547 777 867 917 894 882 763 660 566 304 356 367 341
0 0 0 0 0 0 0 0 0 0 0 0 0 0 0 4 0 0 5 276 352 539 925 754 824 719 511 465 249 300 310 343
0 0 0 0 0 0 0 0 0 0 0 0 0 0 0 0 1 1 35 113 46 408 808 789 522 142 166 101 78 86 175 299
0 0 0 0 0 0 0 0 0 0 0 0 0 0 0 0 0 0 10 1 154 151 619 665 458 119 340 34 254 178 92 126
0 0 0 0 0 0 0 0 0 0 0 0 0 0 0 0 0 0 0 1 4 27 321 285 346 200 262 120 80 141 54 48
0 0 0 0 0 0 0 0 0 0 0 0 0 0 0 0 0 0 0 0 0 0 0 204 21 10 132 74 101 0 24 11
0 0 0 0 0 0 0 0 0 0 0 0 0 0 0 0 0 0 1 2 2 4 0 0 267 58 88 24 37 3 30 0
0 0 0 0 0 0 0 0 0 0 0 0 0 0 0 0 0 0 1 2 2 3 4 1 41 305 101 33 8 15 8 14
0 0 0 0 0 0 0 0 0 0 0 0 1 2 1 0 0 0 1 0 0 1 2 1 0 51 79 3 9 18 11 8
0 0 1 1 0 0 0 0 0 2 1 0 1 7 5 1 2 2 4 5 4 0 0 0 3 0 69 0 0 21 76 26

GFSFLT2_con_sbcape_126.txt.gz
CAPE
1193 1412 1739 1908 2008 1862 1668 1705 1683 1716 1825 1808 1980 2047 1916 1850 2011 2272 2538 2587 2457 2141 1921 1689 1328 1067 958 834 903 981 315 60
1012 1105 1425 1565 1587 1820 1679 1574 1594 1635 1693 1727 1720 1706 1730 1769 1840 1947 2333 2443 2154 1930 1722 1342 1003 875 805 742 716 917 390 87
972 1008 1153 1275 1365 1464 1531 1548 1530 1442 1537 1614 1586 1388 1396 1440 1454 1528 1925 2225 2019 1893 1725 1370 941 753 725 666 508 381 314 126
1098 971 979 1008 1334 1430 1464 1527 1640 1356 1309 1348 1343 1381 1143 1341 1292 1239 1478 1758 1814 1754 1639 1495 1099 571 491 592 319 199 196 222
1684 1164 865 916 1090 1124 1336 1416 1445 1490 1418 1220 1491 1462 1416 1298 1184 1099 1013 1207 1338 1350 1279 1079 946 447 301 294 261 151 61 75
1134 1316 935 850 796 958 999 1218 1135 1258 1298 1446 1566 1258 1244 1263 1246 1281 965 1000 1366 1484 1367 1220 964 465 292 265 234 198 75 47
577 729 1099 823 890 685 516 743 927 1017 914 1083 1112 1153 1158 1262 1163 1263 1132 929 1320 1298 1265 979 807 728 332 241 266 240 172 78
0 129 1243 1476 1183 1000 720 388 573 700 727 891 1039 1177 1139 1201 1059 1108 943 629 887 1181 1098 976 798 706 595 391 318 249 199 118
0 0 0 0 0 0 0 42 65 71 80 26 305 882 956 953 672 954 623 480 630 797 985 1037 886 827 527 490 393 298 271 182
0 0 0 0 0 0 0 0 0 0 0 1 0 3 107 265 265 348 430 695 662 877 955 781 1069 778 702 535 483 430 317 248
0 0 0 0 0 0 0 0 0 0 0 0 0 0 0 2 71 248 403 241 677 830 937 923 920 840 793 657 367 445 416 279
0 0 0 0 0 0 0 0 0 0 0 0 0 0 0 0 1 2 0 0 38 273 408 529 792 893 814 648 368 250 242 286
0 0 0 0 0 0 0 0 0 0 0 0 0 0 0 0 0 0 0 3 0 0 0 27 199 404 427 193 105 102 143 203
0 0 0 0 0 0 0 0 0 0 0 0 0 0 0 0 0 0 0 0 0 8 0 0 0 112 323 106 137 36 61 86
0 0 0 0 0 0 0 0 0 0 0 0 0 0 0 0 0 0 0 0 0 0 0 13 10 126 153 247 63 61 1 8
0 0 0 0 0 0 0 0 0 0 0 0 0 0 0 0 0 0 0 0 1 1 6 6 2 19 12 200 199 16 16 3
0 0 0 0 0 0 0 0 0 0 0 0 0 0 0 0 0 0 0 1 0 0 0 0 4 0 61 79 146 105 62 0
0 0 0 0 0 0 0 1 1 1 1 1 1 1 0 0 0 0 1 1 2 1 1 0 3 4 3 38 33 47 12 1
0 0 0 0 0 0 0 0 0 1 1 0 0 1 0 2 2 1 1 2 1 4 1 0 0 2 0 2 144 59 26 3
0 0 1 1 1 0 0 0 1 1 1 0 4 6 6 5 7 8 5 9 11 9 9 5 3 3 0 2 7 42 29 0

GFSFLT2_con_sbcape_129.txt.gz
CAPE
2130 2350 2326 1821 1884 1789 1755 1829 1712 1680 1705 1802 2093 2193 2203 2168 2235 2378 2475 2428 2291 2288 2068 1685 1459 1210 950 833 788 782 1455 1396
2150 2173 2433 2596 2674 1905 1612 1611 1650 1567 1631 1610 1723 1834 1826 1821 1931 2143 2354 2317 2354 2238 1944 1665 1458 1135 902 711 752 813 1444 1384
2264 2229 2300 2475 2503 2321 1721 1482 1523 1537 1598 1561 1584 2012 2102 1991 1789 1930 2187 2306 2245 1943 1692 1550 1224 891 738 621 585 1338 1517 1425
2586 2414 2244 2203 2023 2322 2494 2551 2490 2445 2349 2375 2366 2267 2174 1951 1758 1536 1709 2021 1864 1756 1598 1314 905 1411 1197 497 1185 1326 1442 1369
2640 2433 2300 2222 2154 2285 2253 1783 1889 2149 2176 2338 2328 2062 1840 2026 2091 1870 2016 1500 2410 1952 1957 2071 1993 1892 1590 1358 1305 1337 1222 1434
1355 1938 2224 2195 2218 2265 1855 1737 1766 1912 2061 2160 2226 2634 2047 1671 1672 1834 1979 1882 2029 2098 2231 2196 2060 2108 1878 1701 1464 1208 1117 1283
36 752 1109 1564 2008 1937 1962 1552 1494 1596 1720 1553 1864 2098 2090 1757 1914 1691 1619 1625 1983 1962 1745 1789 1764 1640 1735 1739 1518 1298 1136 1124
0 0 0 376 1118 1366 1438 1407 1463 1581 1596 1465 1428 1715 1957 1986 1805 1659 1376 1394 1151 2182 2161 1679 1708 1758 1723 1312 1486 1478 1306 1243
0 0 0 0 0 0 3 20 82 394 174 106 933 1659 2068 1952 1801 1559 1762 1526 1045 1258 1530 1783 1799 1300 1187 1449 1215 1419 1439 1396
0 0 0 0 0 0 0 0 0 1 4 9 6 3 0 772 1022 927 918 984 1078 957 1177 915 1218 1427 1360 1159 1252 1042 1388 1523
0 0 0 0 0 0 0 0 0 0 0 0 0 0 0 0 102 639 514 375 687 392 100 570 1125 1092 1058 1004 1078 881 1212 1441
0 0 0 0 0 0 0 0 0 0 0 0 0 0 0 0 0 0 12 145 443 223 11 113 1035 1696 1358 1370 1454 1361 1270 1220
0 0 0 0 0 0 0 0 0 0 0 0 0 0 0 0 0 0 1 3 6 62 428 330 163 518 699 878 944 980 791 767
0 0 0 0 0 0 0 0 0 0 0 0 0 0 0 0 0 0 2 2 1 3 19 33 156 490 528 561 245 503 308 422
0 0 0 0 0 0 0 0 0 0 0 0 0 0 1 1 0 2 2 2 3 7 11 7 15 221 270 402 198 404 181 154
0 0 0 0 0 0 0 0 0 0 0 0 0 0 2 3 4 2 4 4 2 2 2 8 12 17 251 499 198 123 61 120
0 0 0 0 0 0 0 0 0 0 0 0 1 1 4 6 9 4 8 8 6 13 7 4 9 17 13 397 42 22 213 204
0 0 0 1 1 1 2 3 3 3 3 3 2 2 3 5 3 4 3 5 3 6 3 1 5 7 10 7 92 133 49 136
0 0 0 0 1 5 6 4 5 5 6 5 7 4 4 5 8 3 3 6 11 12 11 6 1 2 3 8 5 6 58 49
0 0 0 0 3 6 6 7 5 7 8 6 8 7 7 5 5 6 6 6 11 14 19 21 21 5 4 9 8 3 0 83

GFSFLT2_con_sbcape_132.txt.gz
CAPE
3234 3194 2670 1694 1835 1891 1873 1875 1755 1749 1784 2034 2388 2550 2549 2463 2422 2574 2698 2707 2655 2519 2292 1783 1448 1353 1145 922 814 824 1508 1456
3581 3594 3455 3358 3290 1826 1706 1770 1800 1675 1700 1710 1879 2165 2252 2204 2197 2341 2546 2454 2376 2353 2180 1752 1541 1344 1057 846 739 667 1275 1429
3275 3714 3636 3647 3523 3013 1824 1548 1579 1629 1644 1628 1705 2132 2225 2319 2074 1926 2244 2243 2143 2203 2087 1796 1620 1352 1057 804 595 1324 1332 1505
2435 3383 3684 3697 3186 3210 3304 3192 3001 2875 2746 2683 2586 2362 2303 2016 1801 1681 1890 1896 1456 1527 1798 1558 1412 1451 1393 701 1385 1264 1431 1500
73 2444 3461 3607 3330 3299 3313 3169 3116 3020 3137 3061 2868 2662 2679 2468 2378 2405 2423 1615 2334 1717 1925 2084 1703 1604 1387 1413 1279 1444 1413 1331
93 969 2167 2900 3295 2874 3026 2628 2491 2550 2636 2708 3055 2890 2646 2619 2318 2548 2260 2252 2220 2355 2326 2190 2045 2081 2001 1844 1774 1578 1265 1259
0 0 75 1315 1502 2135 2799 2538 2429 2216 2318 2144 2456 2541 2707 2504 2418 2171 2145 2392 2417 2331 2289 2354 2454 2328 2200 2051 1935 1821 1635 1372
0 0 0 0 0 196 1266 1704 1889 1879 1731 1593 1800 2136 2284 2145 2472 2443 2423 2357 2401 2409 2165 2144 2311 2087 1881 1996 1994 1958 1744 1699
0 0 0 0 0 0 1 9 10 7 7 2 0 0 4 1609 2069 2018 2123 2351 2352 2119 2143 2011 1924 2066 2077 2105 2020 2194 1994 1870
0 0 0 0 0 0 0 1 0 0 0 0 0 0 0 0 225 1392 1524 1723 1503 1497 1848 1902 1692 2036 1930 1959 1968 2082 2024 2002
0 0 0 0 0 0 0 0 0 0 0 0 0 0 0 0 1 2 0 512 975 1250 1504 1692 1386 1366 1584 1735 1987 1968 1912 1736
0 0 0 0 0 0 0 0 0 0 0 0 0 0 0 0 0 0 0 5 263 788 1113 1288 869 484 694 1314 1191 1524 1917 1606
0 0 0 0 0 0 0 0 0 0 0 0 0 0 0 0 0 0 0 0 4 3 35 607 997 641 406 563 132 24 1280 1448
0 0 0 0 0 0 0 0 0 0 0 0 0 0 0 0 0 0 0 0 0 3 9 8 180 513 623 602 316 236 1193 1064
0 0 0 0 0 0 0 0 0 0 0 0 0 0 0 0 0 0 1 0 0 1 1 7 15 12 247 528 373 357 622 1455
0 0 0 0 0 0 0 0 0 0 0 0 0 0 0 1 3 4 3 2 1 2 0 3 8 11 10 13 485 779 469 588
0 0 0 0 0 0 0 0 0 0 0 0 0 0 0 1 6 10 7 8 5 10 14 10 8 2 9 20 5 495 1066 647
0 0 0 0 0 2 4 4 2 0 2 1 0 0 1 3 6 10 8 9 9 8 8 11 5 7 7 14 17 5 209 463
0 0 0 0 2 2 3 3 7 4 7 7 10 5 4 7 10 9 9 6 11 14 12 4 3 4 11 9 8 10 1 4
0 0 0 1 3 4 5 5 7 7 8 11 10 10 9 11 9 9 17 16 14 13 18 20 15 23 16 10 4 11 7 4

GFSFLT2_con_sbcape_135.txt.gz
CAPE
2917 3719 2640 1906 2008 2009 1941 1948 1870 1886 1970 2312 2724 2826 2616 2510 2551 2565 2700 2730 2832 2753 2488 2230 1807 1346 1206 1019 750 763 1076 1405
2401 3383 4003 3794 3254 1867 1869 1867 1854 1722 1790 1837 2074 2365 2439 2259 2343 2294 2340 2384 2497 2534 2408 2159 1618 1359 1175 937 742 674 999 1078
1300 2708 3298 4113 4153 3407 1761 1679 1777 1735 1724 1609 1693 2075 2210 2510 2393 2153 2197 2142 2188 2270 2214 2021 1599 1407 1215 950 693 1190 1069 1119
197 1926 2752 3388 3351 3601 3806 3644 3255 2957 2726 2709 2496 2226 2018 2019 1871 1843 2019 1940 1810 1851 2024 1832 1538 1753 1552 956 1259 1028 1038 839
305 903 2436 2787 2441 2466 2504 2333 3013 3241 3496 3538 3082 3228 2847 2652 2928 2640 2281 1604 2100 1624 1871 2298 1974 1741 1383 1682 1497 1094 1048 702
0 0 400 1398 2780 3176 3366 3222 3034 2837 3131 3005 3144 3494 3178 2917 2802 2607 2892 2566 2051 2140 2166 2110 2029 1899 1728 2177 1938 1338 947 712
0 0 1 305 637 838 2042 2745 2687 2349 2234 1979 2202 2702 2847 2832 3049 2652 2512 2715 2420 2454 2445 2228 2207 2417 2226 2314 2028 2100 1720 1159
0 0 0 2 74 51 132 98 107 101 15 2 1 2 2 591 2607 2482 2895 2591 2782 2295 2187 2031 2061 2197 1975 2138 2187 2323 1972 2280
0 0 0 0 1 1 2 1 0 1 0 0 0 0 0 0 145 1806 1777 2038 1924 1628 955 1645 2209 2085 1664 1971 2127 2283 2106 1883
0 0 0 0 0 0 0 0 0 0 0 0 0 0 0 0 7 184 28 2 980 992 351 270 445 1055 1247 1953 2020 2190 2161 2169
0 0 0 0 0 0 0 0 0 0 0 0 0 0 0 0 0 2 2 3 94 992 1349 1315 1366 1595 936 1370 1915 1949 2031 1790
0 0 0 0 0 0 0 0 0 0 0 0 0 0 0 0 0 0 0 0 2 57 270 499 1326 1403 1296 1263 1408 1518 1810 2019
0 0 0 0 0 0 0 0 0 0 0 0 0 0 0 0 0 0 0 0 0 0 11 81 123 732 554 676 1107 1218 1150 1440
0 0 0 0 0 0 0 0 0 0 0 0 0 0 0 0 0 0 0 0 0 0 3 18 47 112 334 384 491 718 1008 1078
0 0 0 0 0 0 0 0 0 0 0 0 0 0 0 0 0 1 2 0 0 1 1 4 1 10 79 169 354 278 411 788
0 0 0 0 0 0 0 0 0 0 0 0 0 0 0 0 0 2 2 2 2 1 1 5 7 1 0 4 171 264 182 347
0 0 0 0 0 0 0 0 0 0 0 0 0 0 0 0 4 5 6 7 7 10 12 11 9 6 2 1 7 27 42 465
0 0 0 0 0 0 0 0 0 0 1 0 0 0 1 3 5 7 8 8 12 9 8 5 3 3 10 9 4 16 3 106
0 0 0 0 0 0 0 1 1 1 4 6 7 5 5 8 7 11 10 10 8 17 8 12 9 4 8 13 13 8 16 16
0 0 0 0 0 0 1 2 2 3 5 8 7 8 8 8 11 12 9 5 15 16 19 20 14 28 16 23 18 10 13 9

GFSFLT2_con_sbcape_138.txt.gz
CAPE
3908 3146 2387 1990 2010 1972 1853 1822 1856 1944 2240 2605 2870 2865 2736 2678 2608 2479 2483 2576 2632 2835 2505 2470 2198 1653 1119 867 696 603 459 478
2829 4178 3585 3169 2763 1936 1856 1805 1765 1691 1753 1898 2276 2572 2606 2441 2405 2368 2396 2409 2303 2519 2528 2367 2094 1600 1010 894 765 597 447 536
1135 1592 3224 4190 4601 3000 1825 1784 1820 1741 1580 1576 1661 2065 2394 2691 2487 2386 2190 2173 2048 2184 2262 2210 1935 1409 1037 910 753 658 660 696
32 98 936 2048 2821 2669 3328 2989 2377 2379 2399 2636 2024 2167 2057 1913 2145 2158 1853 1861 1822 1853 1959 1839 1536 1494 1036 907 799 835 720 690
0 0 51 1174 1593 2442 2558 2282 2410 2824 2629 2779 2806 2702 2581 2330 2008 1475 1596 1532 1914 1541 1535 1555 1705 1448 1239 1119 910 831 744 604
0 0 0 81 824 850 855 1794 2418 2104 1379 217 1860 2509 2605 2253 1806 1556 1393 1409 1685 1681 1361 1388 1438 1458 1463 1165 1070 941 733 694
0 0 0 0 140 162 297 72 49 30 2 1 0 2 2 229 1607 1964 1528 1598 1370 1303 1146 1251 1293 1415 1495 1130 1393 1394 990 1006
0 0 0 0 4 47 1 0 0 0 0 0 0 0 0 0 8 533 1153 748 1278 1146 983 857 493 331 463 1317 1525 1669 1771 1449
0 0 0 0 0 0 5 0 0 0 0 0 0 0 0 0 0 81 82 14 53 236 355 184 1 0 41 52 814 1137 1494 1598
0 0 0 0 0 0 0 0 0 0 0 0 0 0 0 0 0 2 0 0 141 252 467 431 0 14 0 0 273 840 986 1135
0 0 0 0 0 0 0 0 0 0 0 0 0 0 0 0 0 0 0 0 1 11 3 71 366 114 28 197 282 713 892 921
0 0 0 0 0 0 0 0 0 0 0 0 0 0 0 0 0 0 0 0 0 0 0 19 70 59 559 673 773 865 869 932
0 0 0 0 0 0 0 0 0 0 0 0 0 0 0 0 0 0 0 0 0 0 0 0 0 45 86 363 385 427 577 769
0 0 0 0 0 0 0 0 0 0 0 0 0 0 0 0 0 0 0 0 0 0 0 0 0 0 95 114 139 156 408 505
0 0 0 0 0 0 0 0 0 0 0 0 0 0 0 0 0 0 0 0 0 0 0 0 0 0 0 54 107 153 85 173
0 0 0 0 0 0 0 0 0 0 0 0 0 0 0 0 0 0 0 0 1 1 3 1 0 1 0 0 8 41 54 4
0 0 0 0 0 0 0 0 0 0 0 0 0 0 0 0 0 0 0 3 5 2 2 2 1 0 3 2 0 0 0 4
0 0 0 0 0 0 0 0 0 0 0 0 0 0 0 0 3 6 9 7 7 9 2 10 9 8 5 0 0 5 0 0
0 0 0 0 0 0 0 0 0 0 0 0 1 4 3 4 5 9 2 7 9 9 10 7 12 12 14 14 4 2 0 1
0 0 0 0 0 0 0 0 0 0 0 3 4 5 7 6 6 9 6 9 11 8 11 9 10 14 12 12 15 16 12 2

GFSFLT2_con_sbcape_141.txt.gz
CAPE
2010 1971 2009 1880 1803 1737 1667 1710 1812 2029 2389 2579 2770 2703 2575 2563 2473 2246 2217 2284 2435 2634 2632 2253 2242 1977 1354 968 675 473 427 311
0 868 2145 1902 1600 1860 1840 1763 1652 1579 1659 1891 2328 2427 2500 2448 2404 2350 2238 2191 2228 2327 2601 2366 2165 2039 1604 1075 768 625 491 262
0 0 23 662 1998 2243 1681 1720 1685 1623 1608 1607 1555 1626 2104 2158 2183 2159 2171 2158 2109 2116 2152 2010 2041 1884 1592 1043 743 558 433 329
0 0 0 19 1067 1097 1947 1739 1419 1461 1624 1753 1372 1461 1440 1740 2007 1709 1853 1655 1870 1841 1768 1767 1336 1560 1207 883 655 574 550 572
0 0 0 0 136 208 191 841 960 1251 37 80 1464 1813 1746 1656 1453 1117 1245 1190 1287 1470 1411 1198 1372 1424 1204 740 705 668 584 526
0 0 0 0 0 63 62 49 30 1 0 0 0 1 0 0 128 653 785 767 1211 1173 1316 1226 1173 1251 1170 798 711 709 721 525
0 0 0 0 0 0 0 0 0 0 0 0 0 0 0 0 0 12 198 0 89 189 349 391 692 573 27 0 4 0 510 508
0 0 0 0 0 0 0 0 0 0 0 0 0 0 0 0 0 0 23 0 3 109 255 1 1 1 0 62 0 31 603 723
0 0 0 0 0 0 0 0 0 0 0 0 0 0 0 0 0 0 0 0 0 3 67 99 0 1 0 1 0 23 486 460
0 0 0 0 0 0 0 0 0 0 0 0 0 0 0 0 0 0 0 0 0 0 0 8 7 0 0 0 0 40 44 201
0 0 0 0 0 0 0 0 0 0 0 0 0 0 0 0 0 0 0 0 0 0 0 0 4 46 1 0 0 0 21 381
0 0 0 0 0 0 0 0 0 0 0 0 0 0 0 0 0 0 0 0 0 0 0 0 0 0 17 43 174 241 178 238
0 0 0 0 0 0 0 0 0 0 0 0 0 0 0 0 0 0 0 0 0 0 0 0 0 0 0 9 42 159 216 357
0 0 0 0 0 0 0 0 0 0 0 0 0 0 0 0 0 0 0 0 0 0 0 0 0 0 0 0 19 33 44 187
0 0 0 0 0 0 0 0 0 0 0 0 0 0 0 0 0 0 0 0 0 0 0 0 0 0 0 0 2 34 0 3
0 0 0 0 0 0 0 0 0 0 0 0 0 0 0 0 0 0 0 0 1 0 2 2 1 0 0 0 0 1 9 0
0 0 0 0 0 0 0 0 0 0 0 0 0 0 0 0 0 0 0 1 3 5 1 2 3 8 4 0 0 0 0 8
0 0 0 0 0 0 0 0 0 0 0 0 0 0 0 0 0 1 0 2 4 7 6 4 4 7 9 6 8 4 3 3
0 0 0 0 0 0 0 0 0 0 0 0 0 0 0 0 0 0 1 4 5 4 6 9 9 11 13 16 12 8 13 13
0 0 0 0 0 0 0 0 0 0 0 0 0 0 0 0 0 0 3 3 0 3 10 4 10 15 12 13 21 19 15 14

GFSFLT2_con_sbcape_144.txt.gz
CAPE
119 431 1384 1768 1636 1529 1523 1651 1800 2112 2419 2511 2571 2630 2609 2571 2551 2307 2165 2185 2293 2527 2476 2372 2241 2196 1644 971 664 511 268 209
0 0 8 1047 1630 1742 1621 1575 1571 1602 1692 1884 2216 2460 2319 2223 2161 2211 2303 2118 2052 2170 2241 2358 2211 2023 1938 1449 949 666 276 216
0 0 0 189 804 1658 1606 1552 1644 1571 1459 1492 1434 1458 1743 1934 1891 1756 1658 1819 1805 1783 1869 1916 1702 1834 1761 1531 1000 457 267 200
0 0 0 6 313 246 329 1525 597 30 3 79 1266 1489 1545 1461 1256 842 826 987 1046 1270 1434 1294 898 1270 1356 964 749 441 322 279
0 0 0 0 3 19 113 77 3 1 0 0 1 7 9 85 96 271 517 352 731 741 788 911 987 960 1137 242 206 232 292 403
0 0 0 0 0 0 0 2 0 0 0 0 0 0 0 0 0 10 36 0 0 33 73 160 167 932 13 0 2 2 1 220
0 0 0 0 0 0 0 0 0 0 0 0 0 0 0 0 0 2 0 0 0 1 4 28 7 41 8 18 3 0 0 92
0 0 0 0 0 0 0 0 0 0 0 0 0 0 0 0 0 0 0 0 0 0 0 125 8 0 1 0 0 0 0 6
0 0 0 0 0 0 0 0 0 0 0 0 0 0 0 0 0 0 0 0 0 0 0 0 4 0 0 0 0 0 0 18
0 0 0 0 0 0 0 0 0 0 0 0 0 0 0 0 0 0 0 0 0 0 0 0 0 0 0 0 0 3 0 2
0 0 0 0 0 0 0 0 0 0 0 0 0 0 0 0 0 0 0 0 0 0 0 0 0 0 0 0 0 0 0 4
0 0 0 0 0 0 0 0 0 0 0 0 0 0 0 0 0 0 0 0 0 0 0 0 0 0 0 0 0 14 25 24
0 0 0 0 0 0 0 0 0 0 0 0 0 0 0 0 0 0 0 0 0 0 0 0 0 0 0 0 0 0 49 202
0 0 0 0 0 0 0 0 0 0 0 0 0 0 0 0 0 0 0 0 0 0 0 0 0 0 0 1 0 0 0 0
0 0 0 0 0 0 0 0 0 0 0 0 0 0 0 0 0 0 0 0 0 0 0 0 0 0 0 1 2 0 0 0
0 0 0 0 0 0 0 0 0 0 0 0 0 0 0 0 0 0 0 0 2 3 1 1 1 1 0 0 1 1 11 0
0 0 0 0 0 0 0 0 0 0 0 0 0 0 0 0 0 0 0 0 3 1 3 4 1 2 6 8 1 0 0 9
0 0 0 0 0 0 0 0 0 0 0 0 0 0 0 0 0 0 0 0 0 0 6 5 5 1 2 2 6 4 3 6
0 0 0 0 0 0 0 0 0 0 0 0 0 0 0 0 0 0 0 0 0 1 2 6 5 7 4 5 5 5 8 10
0 0 0 0 0 0 0 0 0 0 0 0 0 0 0 0 0 0 0 0 0 0 7 0 1 2 3 3 4 2 7 9